Time,TemperatureF,DewpointF,PressureIn,WindDirection,WindDirectionDegrees,WindSpeedMPH,WindSpeedGustMPH,Humidity,HourlyPrecipIn,Conditions,Clouds,dailyrainin,SoftwareType,DateUTC
2013-04-30 00:00:00,59.9,46.2,30.04,SW,215,0.0,4.5,60,0.00,,---,0.00,VWS V14.01,2013-04-30 04:00:00,
2013-04-30 00:01:00,59.9,46.2,30.04,SW,215,0.0,0.0,60,0.00,,---,0.00,VWS V14.01,2013-04-30 04:01:00,
2013-04-30 00:03:00,59.9,46.2,30.04,SW,215,0.0,0.0,60,0.00,,---,0.00,VWS V14.01,2013-04-30 04:03:00,
2013-04-30 00:04:00,59.9,46.2,30.04,SSW,201,0.0,0.0,60,0.00,,---,0.00,VWS V14.01,2013-04-30 04:04:00,
2013-04-30 00:06:00,59.9,46.2,30.04,SSW,204,0.0,0.0,60,0.00,,---,0.00,VWS V14.01,2013-04-30 04:06:00,
2013-04-30 00:07:00,59.9,46.2,30.04,SSW,204,0.0,0.0,60,0.00,,---,0.00,VWS V14.01,2013-04-30 04:07:00,
2013-04-30 00:12:00,59.7,46.0,30.04,SSW,204,0.0,0.0,60,0.00,,---,0.00,VWS V14.01,2013-04-30 04:12:00,
2013-04-30 00:17:00,59.7,46.5,30.04,SSW,204,0.0,0.0,62,0.00,,---,0.00,VWS V14.01,2013-04-30 04:17:00,
2013-04-30 00:22:00,59.5,46.3,30.04,SSW,204,0.0,0.0,62,0.00,,---,0.00,VWS V14.01,2013-04-30 04:22:00,
2013-04-30 00:27:00,59.4,46.6,30.04,SW,216,0.0,0.0,63,0.00,,---,0.00,VWS V14.01,2013-04-30 04:27:00,
2013-04-30 00:32:00,59.4,46.6,30.04,SW,215,0.0,0.0,63,0.00,,---,0.00,VWS V14.01,2013-04-30 04:32:00,
2013-04-30 00:37:00,59.5,46.8,30.04,SSW,213,0.0,3.1,63,0.00,,---,0.00,VWS V14.01,2013-04-30 04:37:00,
2013-04-30 00:42:00,59.5,46.8,30.04,SSW,200,0.0,3.1,63,0.00,,---,0.00,VWS V14.01,2013-04-30 04:42:00,
2013-04-30 00:47:00,59.5,46.8,30.07,SSW,200,0.0,3.1,63,0.00,,---,0.00,VWS V14.01,2013-04-30 04:47:00,
2013-04-30 00:52:00,59.4,46.6,30.07,SSW,209,0.0,3.1,63,0.00,,---,0.00,VWS V14.01,2013-04-30 04:52:00,
2013-04-30 00:57:00,59.4,46.6,30.07,SSW,210,0.0,3.1,63,0.00,,---,0.00,VWS V14.01,2013-04-30 04:57:00,
2013-04-30 01:02:00,59.4,46.6,30.07,SSW,210,0.0,0.0,63,0.00,,---,0.00,VWS V14.01,2013-04-30 05:02:00,
2013-04-30 01:07:00,59.4,47.1,30.07,SSW,210,0.0,0.0,64,0.00,,---,0.00,VWS V14.01,2013-04-30 05:07:00,
2013-04-30 01:12:00,59.4,47.1,30.07,SSW,210,0.0,0.0,64,0.00,,---,0.00,VWS V14.01,2013-04-30 05:12:00,
2013-04-30 01:17:00,59.4,47.1,30.07,SSW,212,0.0,3.1,64,0.00,,---,0.00,VWS V14.01,2013-04-30 05:17:00,
2013-04-30 01:22:00,59.4,46.6,30.07,SW,216,0.0,3.1,63,0.00,,---,0.00,VWS V14.01,2013-04-30 05:22:00,
2013-04-30 01:27:00,59.4,46.2,30.07,SW,226,2.2,3.1,62,0.00,,---,0.00,VWS V14.01,2013-04-30 05:27:00,
2013-04-30 01:32:00,59.4,46.2,30.07,SW,219,0.0,3.1,62,0.00,,---,0.00,VWS V14.01,2013-04-30 05:32:00,
2013-04-30 01:37:00,59.4,46.2,30.07,SW,217,0.0,3.1,62,0.00,,---,0.00,VWS V14.01,2013-04-30 05:37:00,
2013-04-30 01:42:00,59.2,46.0,30.07,SW,218,0.0,3.1,62,0.00,,---,0.00,VWS V14.01,2013-04-30 05:42:00,
2013-04-30 01:47:00,59.2,46.0,30.07,SW,218,0.0,3.1,62,0.00,,---,0.00,VWS V14.01,2013-04-30 05:47:00,
2013-04-30 01:52:00,59.0,45.8,30.07,SSW,205,0.0,3.6,62,0.00,,---,0.00,VWS V14.01,2013-04-30 05:52:00,
2013-04-30 01:57:00,58.8,46.1,30.07,SSW,211,0.0,3.6,63,0.00,,---,0.00,VWS V14.01,2013-04-30 05:57:00,
2013-04-30 02:02:00,58.8,46.6,30.07,SW,217,0.0,0.0,64,0.00,,---,0.00,VWS V14.01,2013-04-30 06:02:00,
2013-04-30 02:07:00,58.6,46.4,30.07,SW,216,0.0,0.0,64,0.00,,---,0.00,VWS V14.01,2013-04-30 06:07:00,
2013-04-30 02:12:00,58.6,46.8,30.07,SW,226,0.0,0.0,65,0.00,,---,0.00,VWS V14.01,2013-04-30 06:12:00,
2013-04-30 02:17:00,58.5,46.7,30.07,SSW,198,0.0,0.0,65,0.00,,---,0.00,VWS V14.01,2013-04-30 06:17:00,
2013-04-30 02:22:00,58.5,47.1,30.07,SSW,203,0.0,0.0,66,0.00,,---,0.00,VWS V14.01,2013-04-30 06:22:00,
2013-04-30 02:27:00,58.5,47.1,30.07,SW,215,0.0,0.0,66,0.00,,---,0.00,VWS V14.01,2013-04-30 06:27:00,
2013-04-30 02:32:00,58.6,47.3,30.07,SW,216,0.0,4.0,66,0.00,,---,0.00,VWS V14.01,2013-04-30 06:32:00,
2013-04-30 02:37:00,58.6,47.3,30.07,SSW,209,0.0,4.0,66,0.00,,---,0.00,VWS V14.01,2013-04-30 06:37:00,
2013-04-30 02:42:00,58.5,47.1,30.07,SSW,210,0.0,4.0,66,0.00,,---,0.00,VWS V14.01,2013-04-30 06:42:00,
2013-04-30 02:47:00,58.5,47.1,30.07,SSW,212,0.0,4.0,66,0.00,,---,0.00,VWS V14.01,2013-04-30 06:47:00,
2013-04-30 02:52:00,58.6,46.8,30.07,SW,226,0.0,4.0,65,0.00,,---,0.00,VWS V14.01,2013-04-30 06:52:00,
2013-04-30 02:57:00,58.5,46.7,30.07,SW,225,0.0,5.4,65,0.00,,---,0.00,VWS V14.01,2013-04-30 06:57:00,
2013-04-30 03:02:00,58.3,46.5,30.07,SW,220,0.0,0.0,65,0.00,,---,0.00,VWS V14.01,2013-04-30 07:02:00,
2013-04-30 03:07:00,58.1,46.3,30.07,SW,214,2.7,4.9,65,0.00,,---,0.00,VWS V14.01,2013-04-30 07:07:00,
2013-04-30 03:12:00,58.1,46.3,30.07,SSW,208,4.0,4.9,65,0.00,,---,0.00,VWS V14.01,2013-04-30 07:12:00,
2013-04-30 03:18:00,58.1,46.3,30.07,SW,220,0.0,5.4,65,0.00,,---,0.00,VWS V14.01,2013-04-30 07:18:00,
2013-04-30 03:23:00,57.9,46.2,30.07,SW,216,0.0,5.4,65,0.00,,---,0.00,VWS V14.01,2013-04-30 07:23:00,
2013-04-30 03:28:00,57.7,46.0,30.07,SSW,210,2.7,5.4,65,0.00,,---,0.00,VWS V14.01,2013-04-30 07:28:00,
2013-04-30 03:33:00,57.6,46.2,30.07,SSW,210,0.0,5.4,66,0.00,,---,0.00,VWS V14.01,2013-04-30 07:33:00,
2013-04-30 03:38:00,57.6,46.2,30.07,SW,219,0.0,5.4,66,0.00,,---,0.00,VWS V14.01,2013-04-30 07:38:00,
2013-04-30 03:43:00,57.6,46.2,30.07,SW,221,0.0,5.4,66,0.00,,---,0.00,VWS V14.01,2013-04-30 07:43:00,
2013-04-30 03:48:00,57.4,46.5,30.04,SW,218,0.0,5.4,67,0.00,,---,0.00,VWS V14.01,2013-04-30 07:48:00,
2013-04-30 03:53:00,57.2,46.3,30.04,SW,216,0.0,5.4,67,0.00,,---,0.00,VWS V14.01,2013-04-30 07:53:00,
2013-04-30 03:58:00,57.2,46.8,30.04,SW,219,0.0,5.4,68,0.00,,---,0.00,VWS V14.01,2013-04-30 07:58:00,
2013-04-30 04:03:00,57.0,46.6,30.07,SW,219,0.0,0.0,68,0.00,,---,0.00,VWS V14.01,2013-04-30 08:03:00,
2013-04-30 04:08:00,56.8,46.8,30.07,SW,219,0.0,3.6,69,0.00,,---,0.00,VWS V14.01,2013-04-30 08:08:00,
2013-04-30 04:13:00,56.8,46.8,30.07,SW,219,0.0,3.6,69,0.00,,---,0.00,VWS V14.01,2013-04-30 08:13:00,
2013-04-30 04:18:00,56.7,47.1,30.07,SW,218,0.0,3.6,70,0.00,,---,0.00,VWS V14.01,2013-04-30 08:18:00,
2013-04-30 04:23:00,56.7,47.1,30.07,SW,215,0.0,3.6,70,0.00,,---,0.00,VWS V14.01,2013-04-30 08:23:00,
2013-04-30 04:28:00,56.5,46.9,30.07,SW,215,0.0,3.6,70,0.00,,---,0.00,VWS V14.01,2013-04-30 08:28:00,
2013-04-30 04:33:00,56.3,46.7,30.07,SW,215,0.0,3.6,70,0.00,,---,0.00,VWS V14.01,2013-04-30 08:33:00,
2013-04-30 04:38:00,56.3,47.1,30.07,SW,215,0.0,3.6,71,0.00,,---,0.00,VWS V14.01,2013-04-30 08:38:00,
2013-04-30 04:43:00,56.3,47.1,30.07,SW,218,0.0,3.6,71,0.00,,---,0.00,VWS V14.01,2013-04-30 08:43:00,
2013-04-30 04:48:00,56.1,47.0,30.07,SW,216,0.0,3.6,71,0.00,,---,0.00,VWS V14.01,2013-04-30 08:48:00,
2013-04-30 04:53:00,56.1,47.4,30.07,SW,216,0.0,3.6,72,0.00,,---,0.00,VWS V14.01,2013-04-30 08:53:00,
2013-04-30 04:58:00,55.9,47.2,30.07,SW,216,0.0,3.6,72,0.00,,---,0.00,VWS V14.01,2013-04-30 08:58:00,
2013-04-30 05:03:00,55.9,47.6,30.07,SW,216,0.0,0.0,73,0.00,,---,0.00,VWS V14.01,2013-04-30 09:03:00,
2013-04-30 05:08:00,55.8,47.4,30.07,SSW,213,0.0,0.0,73,0.00,,---,0.00,VWS V14.01,2013-04-30 09:08:00,
2013-04-30 05:13:00,55.8,47.4,30.07,SSW,213,0.0,0.0,73,0.00,,---,0.00,VWS V14.01,2013-04-30 09:13:00,
2013-04-30 05:18:00,55.6,47.2,30.07,SW,214,0.0,0.0,73,0.00,,---,0.00,VWS V14.01,2013-04-30 09:18:00,
2013-04-30 05:23:00,55.4,47.1,30.07,SW,214,0.0,0.0,73,0.00,,---,0.00,VWS V14.01,2013-04-30 09:23:00,
2013-04-30 05:28:00,55.4,47.5,30.07,SW,214,0.0,0.0,75,0.00,,---,0.00,VWS V14.01,2013-04-30 09:28:00,
2013-04-30 05:33:00,55.2,47.7,30.07,SW,214,0.0,0.0,76,0.00,,---,0.00,VWS V14.01,2013-04-30 09:33:00,
2013-04-30 05:38:00,55.2,48.0,30.07,SW,215,0.0,0.0,77,0.00,,---,0.00,VWS V14.01,2013-04-30 09:38:00,
2013-04-30 05:43:00,55.2,48.0,30.07,SW,215,0.0,0.0,77,0.00,,---,0.00,VWS V14.01,2013-04-30 09:43:00,
2013-04-30 05:48:00,55.2,48.0,30.07,SW,215,0.0,0.0,77,0.00,,---,0.00,VWS V14.01,2013-04-30 09:48:00,
2013-04-30 05:53:00,55.0,47.9,30.07,SW,217,0.0,3.1,77,0.00,,---,0.00,VWS V14.01,2013-04-30 09:53:00,
2013-04-30 05:58:00,54.9,47.7,30.07,SW,217,0.0,3.1,77,0.00,,---,0.00,VWS V14.01,2013-04-30 09:58:00,
2013-04-30 06:03:00,54.7,47.5,30.07,SW,218,0.0,0.0,77,0.00,,---,0.00,VWS V14.01,2013-04-30 10:03:00,
2013-04-30 06:08:00,54.5,47.7,30.07,SW,217,0.0,0.0,78,0.00,,---,0.00,VWS V14.01,2013-04-30 10:08:00,
2013-04-30 06:13:00,54.5,47.7,30.07,SW,217,0.0,0.0,78,0.00,,---,0.00,VWS V14.01,2013-04-30 10:13:00,
2013-04-30 06:18:00,54.1,47.4,30.07,SW,217,0.0,0.0,78,0.00,,---,0.00,VWS V14.01,2013-04-30 10:18:00,
2013-04-30 06:23:00,54.0,47.5,30.07,SW,217,0.0,0.0,79,0.00,,---,0.00,VWS V14.01,2013-04-30 10:23:00,
2013-04-30 06:28:00,54.0,47.9,30.07,SW,217,0.0,0.0,80,0.00,,---,0.00,VWS V14.01,2013-04-30 10:28:00,
2013-04-30 06:33:00,53.8,48.1,30.07,SW,217,0.0,0.0,81,0.00,,---,0.00,VWS V14.01,2013-04-30 10:33:00,
2013-04-30 06:38:00,53.8,48.5,30.07,SW,217,0.0,0.0,82,0.00,,---,0.00,VWS V14.01,2013-04-30 10:38:00,
2013-04-30 06:43:00,53.8,48.8,30.07,SW,217,0.0,0.0,83,0.00,,---,0.00,VWS V14.01,2013-04-30 10:43:00,
2013-04-30 06:49:00,54.0,49.3,30.07,SW,217,0.0,0.0,84,0.00,,---,0.00,VWS V14.01,2013-04-30 10:49:00,
2013-04-30 06:54:00,54.0,49.3,30.07,SW,217,0.0,0.0,84,0.00,,---,0.00,VWS V14.01,2013-04-30 10:54:00,
2013-04-30 06:59:00,54.0,49.3,30.07,SW,214,0.0,0.0,84,0.00,,---,0.00,VWS V14.01,2013-04-30 10:59:00,
2013-04-30 07:04:00,54.1,49.8,30.07,SW,216,0.0,0.0,85,0.00,,---,0.00,VWS V14.01,2013-04-30 11:04:00,
2013-04-30 07:09:00,54.3,50.0,30.07,SW,214,0.0,0.0,85,0.00,,---,0.00,VWS V14.01,2013-04-30 11:09:00,
2013-04-30 07:14:00,54.5,49.8,30.07,SW,214,0.0,0.0,84,0.00,,---,0.00,VWS V14.01,2013-04-30 11:14:00,
2013-04-30 07:19:00,54.7,50.0,30.07,SW,214,0.0,0.0,84,0.00,,---,0.00,VWS V14.01,2013-04-30 11:19:00,
2013-04-30 07:24:00,55.0,50.0,30.07,SW,214,0.0,0.0,83,0.00,,---,0.00,VWS V14.01,2013-04-30 11:24:00,
2013-04-30 07:29:00,55.4,50.0,30.07,SSW,211,0.0,0.0,82,0.00,,---,0.00,VWS V14.01,2013-04-30 11:29:00,
2013-04-30 07:34:00,55.8,50.0,30.10,SSW,210,0.0,0.0,81,0.00,,---,0.00,VWS V14.01,2013-04-30 11:34:00,
2013-04-30 07:39:00,56.1,49.7,30.10,SSW,213,0.0,0.0,79,0.00,,---,0.00,VWS V14.01,2013-04-30 11:39:00,
2013-04-30 07:44:00,56.5,49.6,30.10,SSW,213,0.0,0.0,78,0.00,,---,0.00,VWS V14.01,2013-04-30 11:44:00,
2013-04-30 07:49:00,56.8,49.6,30.10,SW,216,0.0,0.0,77,0.00,,---,0.00,VWS V14.01,2013-04-30 11:49:00,
2013-04-30 07:54:00,57.4,49.4,30.10,SW,216,0.0,0.0,75,0.00,,---,0.00,VWS V14.01,2013-04-30 11:54:00,
2013-04-30 07:59:00,57.7,48.1,30.10,SW,214,0.0,0.0,70,0.00,,---,0.00,VWS V14.01,2013-04-30 11:59:00,
2013-04-30 08:04:00,58.1,47.6,30.10,SSW,212,0.0,0.0,68,0.00,,---,0.00,VWS V14.01,2013-04-30 12:04:00,
2013-04-30 08:09:00,58.5,47.1,30.10,SSW,211,0.0,0.0,66,0.00,,---,0.00,VWS V14.01,2013-04-30 12:09:00,
2013-04-30 08:14:00,59.0,46.7,30.10,SSW,213,0.0,3.6,64,0.00,,---,0.00,VWS V14.01,2013-04-30 12:14:00,
2013-04-30 08:19:00,59.2,46.0,30.10,SSW,198,0.0,5.4,62,0.00,,---,0.00,VWS V14.01,2013-04-30 12:19:00,
2013-04-30 08:24:00,59.9,46.2,30.10,SSW,204,2.7,5.4,60,0.00,,---,0.00,VWS V14.01,2013-04-30 12:24:00,
2013-04-30 08:29:00,60.3,45.1,30.10,SSW,209,4.0,5.4,57,0.00,,---,0.00,VWS V14.01,2013-04-30 12:29:00,
2013-04-30 08:34:00,60.6,45.4,30.10,SSW,193,5.4,5.8,57,0.00,,---,0.00,VWS V14.01,2013-04-30 12:34:00,
2013-04-30 08:41:00,61.3,45.6,30.10,SSW,212,0.0,5.8,56,0.00,,---,0.00,VWS V14.01,2013-04-30 12:41:00,
2013-04-30 08:46:00,61.9,45.1,30.10,SW,234,3.1,8.3,54,0.00,,---,0.00,VWS V14.01,2013-04-30 12:46:00,
2013-04-30 08:51:00,62.2,44.9,30.13,SSW,207,0.0,8.3,53,0.00,,---,0.00,VWS V14.01,2013-04-30 12:51:00,
2013-04-30 08:56:00,62.6,45.2,30.13,SW,222,0.0,8.3,53,0.00,,---,0.00,VWS V14.01,2013-04-30 12:56:00,
2013-04-30 09:01:00,63.0,44.5,30.13,SSW,212,4.5,5.4,51,0.00,,---,0.00,VWS V14.01,2013-04-30 13:01:00,
2013-04-30 09:06:00,63.3,44.2,30.13,SSW,211,2.7,5.4,50,0.00,,---,0.00,VWS V14.01,2013-04-30 13:06:00,
2013-04-30 09:11:00,64.0,44.9,30.13,SW,222,2.7,5.4,50,0.00,,---,0.00,VWS V14.01,2013-04-30 13:11:00,
2013-04-30 09:16:00,64.2,44.5,30.13,SW,223,4.0,5.4,49,0.00,,---,0.00,VWS V14.01,2013-04-30 13:16:00,
2013-04-30 09:21:00,64.2,43.9,30.13,SSW,208,2.7,6.3,48,0.00,,---,0.00,VWS V14.01,2013-04-30 13:21:00,
2013-04-30 09:26:00,65.1,44.7,30.13,SSW,196,3.6,6.3,48,0.00,,---,0.00,VWS V14.01,2013-04-30 13:26:00,
2013-04-30 09:31:00,65.3,44.3,30.13,SSW,212,2.7,6.3,46,0.00,,---,0.00,VWS V14.01,2013-04-30 13:31:00,
2013-04-30 09:36:00,65.5,43.8,30.13,SW,221,3.1,6.3,45,0.00,,---,0.00,VWS V14.01,2013-04-30 13:36:00,
2013-04-30 09:41:00,66.0,44.9,30.13,SSW,210,4.0,6.3,46,0.00,,---,0.00,VWS V14.01,2013-04-30 13:41:00,
2013-04-30 09:46:00,65.7,42.7,30.13,SW,228,2.7,6.3,43,0.00,,---,0.00,VWS V14.01,2013-04-30 13:46:00,
2013-04-30 09:51:00,65.3,42.4,30.13,SSW,212,4.0,6.3,43,0.00,,---,0.00,VWS V14.01,2013-04-30 13:51:00,
2013-04-30 09:56:00,65.7,42.7,30.13,SE,125,5.8,7.6,43,0.00,,---,0.00,VWS V14.01,2013-04-30 13:56:00,
2013-04-30 10:01:00,65.7,44.0,30.13,SSW,210,2.7,3.1,45,0.00,,---,0.00,VWS V14.01,2013-04-30 14:01:00,
2013-04-30 10:06:00,65.8,42.9,30.13,SW,231,4.0,8.3,43,0.00,,---,0.00,VWS V14.01,2013-04-30 14:06:00,
2013-04-30 10:11:00,65.8,42.2,30.13,SW,218,2.7,8.3,42,0.00,,---,0.00,VWS V14.01,2013-04-30 14:11:00,
2013-04-30 10:16:00,66.2,41.8,30.13,SW,215,0.0,8.3,41,0.00,,---,0.00,VWS V14.01,2013-04-30 14:16:00,
2013-04-30 10:22:00,66.0,41.7,30.13,SSW,203,3.6,8.3,41,0.00,,---,0.00,VWS V14.01,2013-04-30 14:22:00,
2013-04-30 10:27:00,66.0,41.7,30.13,SW,225,0.0,8.3,41,0.00,,---,0.00,VWS V14.01,2013-04-30 14:27:00,
2013-04-30 10:32:00,66.4,42.0,30.16,SSW,205,0.0,8.3,41,0.00,,---,0.00,VWS V14.01,2013-04-30 14:32:00,
2013-04-30 10:37:00,66.2,40.5,30.16,SW,223,5.4,8.3,39,0.00,,---,0.00,VWS V14.01,2013-04-30 14:37:00,
2013-04-30 10:42:00,66.2,40.5,30.16,WSW,247,5.8,8.3,39,0.00,,---,0.00,VWS V14.01,2013-04-30 14:42:00,
2013-04-30 10:47:00,66.2,40.5,30.13,SW,235,0.0,8.3,39,0.00,,---,0.00,VWS V14.01,2013-04-30 14:47:00,
2013-04-30 10:52:00,66.2,41.8,30.13,SW,216,0.0,8.3,41,0.00,,---,0.00,VWS V14.01,2013-04-30 14:52:00,
2013-04-30 10:57:00,66.7,41.7,30.13,SW,218,0.0,8.3,40,0.00,,---,0.00,VWS V14.01,2013-04-30 14:57:00,
2013-04-30 11:02:00,66.7,40.9,30.16,SW,229,0.0,4.0,39,0.00,,---,0.00,VWS V14.01,2013-04-30 15:02:00,
2013-04-30 11:07:00,66.9,41.8,30.16,SSW,208,0.0,4.0,40,0.00,,---,0.00,VWS V14.01,2013-04-30 15:07:00,
2013-04-30 11:12:00,66.7,40.9,30.16,SSW,212,0.0,4.0,39,0.00,,---,0.00,VWS V14.01,2013-04-30 15:12:00,
2013-04-30 11:17:00,66.6,40.8,30.16,SSW,212,0.0,4.0,39,0.00,,---,0.00,VWS V14.01,2013-04-30 15:17:00,
2013-04-30 11:22:00,66.6,40.0,30.16,SW,225,4.0,6.3,38,0.00,,---,0.00,VWS V14.01,2013-04-30 15:22:00,
2013-04-30 11:27:00,66.6,40.0,30.16,SSW,213,3.1,6.3,38,0.00,,---,0.00,VWS V14.01,2013-04-30 15:27:00,
2013-04-30 11:32:00,66.6,40.0,30.16,SSW,210,0.0,6.3,38,0.00,,---,0.00,VWS V14.01,2013-04-30 15:32:00,
2013-04-30 11:37:00,66.7,40.9,30.16,SW,218,4.0,6.3,39,0.00,,---,0.00,VWS V14.01,2013-04-30 15:37:00,
2013-04-30 11:42:00,66.9,41.1,30.16,SSW,204,0.0,6.3,39,0.00,,---,0.00,VWS V14.01,2013-04-30 15:42:00,
2013-04-30 11:47:00,66.7,40.9,30.19,West,272,0.0,6.3,39,0.00,,---,0.00,VWS V14.01,2013-04-30 15:47:00,
2013-04-30 11:52:00,66.6,40.8,30.19,SSW,205,0.0,6.3,39,0.00,,---,0.00,VWS V14.01,2013-04-30 15:52:00,
2013-04-30 11:57:00,66.6,40.8,30.19,SSW,203,3.1,6.3,39,0.00,,---,0.00,VWS V14.01,2013-04-30 15:57:00,
2013-04-30 12:02:00,66.4,40.6,30.16,SSW,212,0.0,0.0,39,0.00,,---,0.00,VWS V14.01,2013-04-30 16:02:00,
2013-04-30 12:07:00,66.4,41.3,30.16,SSW,202,0.0,3.6,40,0.00,,---,0.00,VWS V14.01,2013-04-30 16:07:00,
2013-04-30 12:12:00,66.0,41.0,30.16,SSW,194,0.0,4.5,40,0.00,,---,0.00,VWS V14.01,2013-04-30 16:12:00,
2013-04-30 12:17:00,66.0,41.7,30.16,SW,217,2.7,4.5,41,0.00,,---,0.00,VWS V14.01,2013-04-30 16:17:00,
2013-04-30 12:22:00,65.8,41.5,30.16,SSW,194,2.7,7.2,41,0.00,,---,0.00,VWS V14.01,2013-04-30 16:22:00,
2013-04-30 12:27:00,65.8,42.9,30.16,SSW,212,5.4,7.2,43,0.00,,---,0.00,VWS V14.01,2013-04-30 16:27:00,
2013-04-30 12:32:00,65.7,42.0,30.16,West,268,0.0,7.2,42,0.00,,---,0.00,VWS V14.01,2013-04-30 16:32:00,
2013-04-30 12:37:00,65.8,42.2,30.16,SSW,205,0.0,7.2,42,0.00,,---,0.00,VWS V14.01,2013-04-30 16:37:00,
2013-04-30 12:42:00,65.8,41.5,30.16,SSE,162,3.1,7.2,41,0.00,,---,0.00,VWS V14.01,2013-04-30 16:42:00,
2013-04-30 12:47:00,66.0,42.4,30.16,SSW,203,0.0,7.2,42,0.00,,---,0.00,VWS V14.01,2013-04-30 16:47:00,
2013-04-30 12:52:00,66.4,42.7,30.16,SW,234,5.8,7.2,42,0.00,,---,0.00,VWS V14.01,2013-04-30 16:52:00,
2013-04-30 12:57:00,66.4,41.3,30.16,SW,221,5.4,8.1,40,0.00,,---,0.00,VWS V14.01,2013-04-30 16:57:00,
2013-04-30 13:03:00,66.4,40.6,30.13,SSE,162,7.6,9.6,39,0.00,,---,0.00,VWS V14.01,2013-04-30 17:03:00,
2013-04-30 13:08:00,66.4,41.3,30.13,WSW,240,5.4,9.6,40,0.00,,---,0.00,VWS V14.01,2013-04-30 17:08:00,
2013-04-30 13:13:00,66.7,41.7,30.13,SSW,208,4.0,9.6,40,0.00,,---,0.00,VWS V14.01,2013-04-30 17:13:00,
2013-04-30 13:18:00,66.7,40.9,30.13,South,177,4.0,9.6,39,0.00,,---,0.00,VWS V14.01,2013-04-30 17:18:00,
2013-04-30 13:23:00,66.9,41.8,30.13,SW,229,3.6,10.1,40,0.00,,---,0.00,VWS V14.01,2013-04-30 17:23:00,
2013-04-30 13:28:00,67.1,41.3,30.13,SSE,158,2.7,10.1,39,0.00,,---,0.00,VWS V14.01,2013-04-30 17:28:00,
2013-04-30 13:33:00,67.3,41.4,30.13,SSW,203,3.6,10.1,39,0.00,,---,0.00,VWS V14.01,2013-04-30 17:33:00,
2013-04-30 13:38:00,67.6,43.2,30.13,South,182,6.3,10.1,41,0.00,,---,0.00,VWS V14.01,2013-04-30 17:38:00,
2013-04-30 13:46:00,67.8,42.6,30.13,SSW,203,3.1,10.1,40,0.00,,---,0.00,VWS V14.01,2013-04-30 17:46:00,
2013-04-30 13:52:00,68.5,43.3,30.13,ESE,104,3.1,10.1,40,0.00,,---,0.00,VWS V14.01,2013-04-30 17:52:00,
2013-04-30 13:57:00,68.7,42.0,30.13,SSW,206,3.1,10.1,38,0.00,,---,0.00,VWS V14.01,2013-04-30 17:57:00,
2013-04-30 14:02:00,69.1,43.0,30.13,SSW,209,0.0,5.8,39,0.00,,---,0.00,VWS V14.01,2013-04-30 18:02:00,
2013-04-30 14:07:00,69.4,42.6,30.13,SSW,205,3.6,10.1,38,0.00,,---,0.00,VWS V14.01,2013-04-30 18:07:00,
2013-04-30 14:12:00,69.6,42.8,30.13,SSW,197,8.3,10.1,38,0.00,,---,0.00,VWS V14.01,2013-04-30 18:12:00,
2013-04-30 14:17:00,69.6,43.5,30.13,SW,224,4.0,10.1,39,0.00,,---,0.00,VWS V14.01,2013-04-30 18:17:00,
2013-04-30 14:22:00,70.0,42.3,30.13,SW,231,14.5,14.5,37,0.00,,---,0.00,VWS V14.01,2013-04-30 18:22:00,
2013-04-30 14:28:00,69.8,41.4,30.13,SSW,203,9.6,14.5,36,0.00,,---,0.00,VWS V14.01,2013-04-30 18:28:00,
2013-04-30 14:33:00,69.8,42.2,30.13,SW,227,3.6,14.5,37,0.00,,---,0.00,VWS V14.01,2013-04-30 18:33:00,
2013-04-30 14:39:00,70.2,41.7,30.13,SW,225,6.3,14.5,36,0.00,,---,0.00,VWS V14.01,2013-04-30 18:39:00,
2013-04-30 14:44:00,70.9,44.6,30.13,SSW,195,3.6,14.5,39,0.00,,---,0.00,VWS V14.01,2013-04-30 18:44:00,
2013-04-30 14:49:00,71.6,43.0,30.13,SSW,207,2.7,14.5,36,0.00,,---,0.00,VWS V14.01,2013-04-30 18:49:00,
2013-04-30 14:54:00,71.4,42.8,30.13,SSW,204,7.6,14.5,36,0.00,,---,0.00,VWS V14.01,2013-04-30 18:54:00,
2013-04-30 14:59:00,71.4,42.8,30.13,SW,215,5.4,14.5,36,0.00,,---,0.00,VWS V14.01,2013-04-30 18:59:00,
2013-04-30 15:04:00,71.6,43.8,30.10,SW,234,5.8,11.0,37,0.00,,---,0.00,VWS V14.01,2013-04-30 19:04:00,
2013-04-30 15:09:00,72.1,43.5,30.10,SSW,199,8.1,11.0,36,0.00,,---,0.00,VWS V14.01,2013-04-30 19:09:00,
2013-04-30 15:15:00,71.6,43.0,30.10,SSW,207,5.4,12.3,36,0.00,,---,0.00,VWS V14.01,2013-04-30 19:15:00,
2013-04-30 15:20:00,71.8,43.2,30.13,South,180,4.0,12.3,36,0.00,,---,0.00,VWS V14.01,2013-04-30 19:20:00,
2013-04-30 15:25:00,71.6,42.2,30.13,SSW,211,5.4,12.3,35,0.00,,---,0.00,VWS V14.01,2013-04-30 19:25:00,
2013-04-30 15:30:00,71.8,42.4,30.13,SW,219,5.4,12.3,35,0.00,,---,0.00,VWS V14.01,2013-04-30 19:30:00,
2013-04-30 15:35:00,71.8,42.4,30.13,SSW,200,6.3,12.3,35,0.00,,---,0.00,VWS V14.01,2013-04-30 19:35:00,
2013-04-30 15:40:00,72.0,42.5,30.13,SW,230,4.5,12.3,35,0.00,,---,0.00,VWS V14.01,2013-04-30 19:40:00,
2013-04-30 15:45:00,71.8,42.4,30.13,SSW,194,3.1,12.3,35,0.00,,---,0.00,VWS V14.01,2013-04-30 19:45:00,
2013-04-30 15:50:00,71.8,42.4,30.13,South,180,6.3,12.3,35,0.00,,---,0.00,VWS V14.01,2013-04-30 19:50:00,
2013-04-30 15:55:00,71.8,42.4,30.13,SSW,213,6.3,12.3,35,0.00,,---,0.00,VWS V14.01,2013-04-30 19:55:00,
2013-04-30 16:00:00,72.0,42.5,30.13,SSW,206,5.4,5.4,35,0.00,,---,0.00,VWS V14.01,2013-04-30 20:00:00,
2013-04-30 16:05:00,72.0,42.5,30.13,SW,227,5.4,10.1,35,0.00,,---,0.00,VWS V14.01,2013-04-30 20:05:00,
2013-04-30 16:10:00,72.1,42.7,30.13,South,185,4.9,10.1,35,0.00,,---,0.00,VWS V14.01,2013-04-30 20:10:00,
2013-04-30 16:15:00,72.5,43.8,30.13,South,179,4.9,10.1,36,0.00,,---,0.00,VWS V14.01,2013-04-30 20:15:00,
2013-04-30 16:20:00,72.3,42.8,30.13,SSW,205,3.6,10.1,35,0.00,,---,0.00,VWS V14.01,2013-04-30 20:20:00,
2013-04-30 16:25:00,72.0,43.3,30.13,South,190,4.0,10.1,36,0.00,,---,0.00,VWS V14.01,2013-04-30 20:25:00,
2013-04-30 16:30:00,72.1,43.5,30.13,SSW,207,3.1,10.1,36,0.00,,---,0.00,VWS V14.01,2013-04-30 20:30:00,
2013-04-30 16:35:00,72.5,43.0,30.10,SE,131,3.1,10.1,35,0.00,,---,0.00,VWS V14.01,2013-04-30 20:35:00,
2013-04-30 16:40:00,72.5,43.8,30.10,SSE,151,5.8,10.1,36,0.00,,---,0.00,VWS V14.01,2013-04-30 20:40:00,
2013-04-30 16:45:00,72.3,43.6,30.10,SSW,194,3.1,10.1,36,0.00,,---,0.00,VWS V14.01,2013-04-30 20:45:00,
2013-04-30 16:50:00,72.1,43.5,30.13,SW,214,7.2,10.1,36,0.00,,---,0.00,VWS V14.01,2013-04-30 20:50:00,
2013-04-30 16:55:00,71.6,43.0,30.13,ESE,102,3.6,10.1,36,0.00,,---,0.00,VWS V14.01,2013-04-30 20:55:00,
2013-04-30 17:00:00,71.2,42.7,30.13,SSW,200,0.0,3.1,36,0.00,,---,0.00,VWS V14.01,2013-04-30 21:00:00,
2013-04-30 17:05:00,71.1,42.5,30.10,SW,236,3.1,6.7,36,0.00,,---,0.00,VWS V14.01,2013-04-30 21:05:00,
2013-04-30 17:10:00,71.1,43.3,30.10,SSE,166,0.0,7.6,37,0.00,,---,0.00,VWS V14.01,2013-04-30 21:10:00,
2013-04-30 17:16:00,71.2,42.7,30.10,SSW,194,3.6,7.6,36,0.00,,---,0.00,VWS V14.01,2013-04-30 21:16:00,
2013-04-30 17:21:00,71.6,43.0,30.10,SSW,203,4.0,7.6,36,0.00,,---,0.00,VWS V14.01,2013-04-30 21:21:00,
2013-04-30 17:26:00,71.6,43.0,30.10,South,171,6.3,7.6,36,0.00,,---,0.00,VWS V14.01,2013-04-30 21:26:00,
2013-04-30 17:31:00,71.6,43.0,30.10,SSE,163,5.4,7.6,36,0.00,,---,0.00,VWS V14.01,2013-04-30 21:31:00,
2013-04-30 17:36:00,71.2,42.7,30.13,SSW,195,2.7,7.6,36,0.00,,---,0.00,VWS V14.01,2013-04-30 21:36:00,
2013-04-30 17:41:00,70.9,42.4,30.13,SSE,147,4.0,7.6,36,0.00,,---,0.00,VWS V14.01,2013-04-30 21:41:00,
2013-04-30 17:46:00,70.7,43.0,30.13,SSE,162,5.4,7.6,37,0.00,,---,0.00,VWS V14.01,2013-04-30 21:46:00,
2013-04-30 17:51:00,70.3,42.7,30.13,South,189,3.1,7.6,37,0.00,,---,0.00,VWS V14.01,2013-04-30 21:51:00,
2013-04-30 17:56:00,69.8,42.2,30.13,SSW,208,5.4,7.6,37,0.00,,---,0.00,VWS V14.01,2013-04-30 21:56:00,
2013-04-30 18:01:00,69.4,42.6,30.13,SE,140,0.0,0.0,38,0.00,,---,0.00,VWS V14.01,2013-04-30 22:01:00,
2013-04-30 18:06:00,69.3,43.2,30.13,SE,141,6.3,6.3,39,0.00,,---,0.00,VWS V14.01,2013-04-30 22:06:00,
2013-04-30 18:11:00,68.9,42.9,30.13,SE,141,3.6,6.3,39,0.00,,---,0.00,VWS V14.01,2013-04-30 22:11:00,
2013-04-30 18:16:00,68.7,43.4,30.13,South,177,0.0,6.3,40,0.00,,---,0.00,VWS V14.01,2013-04-30 22:16:00,
2013-04-30 18:21:00,68.5,43.3,30.13,SSE,148,0.0,6.3,40,0.00,,---,0.00,VWS V14.01,2013-04-30 22:21:00,
2013-04-30 18:26:00,68.2,42.2,30.13,SE,136,0.0,6.3,39,0.00,,---,0.00,VWS V14.01,2013-04-30 22:26:00,
2013-04-30 18:31:00,68.0,42.8,30.13,East,98,3.1,6.3,40,0.00,,---,0.00,VWS V14.01,2013-04-30 22:31:00,
2013-04-30 18:36:00,67.8,42.6,30.13,ESE,115,2.2,6.3,40,0.00,,---,0.00,VWS V14.01,2013-04-30 22:36:00,
2013-04-30 18:41:00,67.6,43.2,30.13,South,186,0.0,6.3,41,0.00,,---,0.00,VWS V14.01,2013-04-30 22:41:00,
2013-04-30 18:46:00,67.6,43.2,30.13,SSE,150,0.0,6.3,41,0.00,,---,0.00,VWS V14.01,2013-04-30 22:46:00,
2013-04-30 18:51:00,67.6,43.8,30.13,SSE,154,0.0,6.3,42,0.00,,---,0.00,VWS V14.01,2013-04-30 22:51:00,
2013-04-30 18:56:00,67.8,43.3,30.13,SE,138,2.7,6.7,41,0.00,,---,0.00,VWS V14.01,2013-04-30 22:56:00,
2013-04-30 19:01:00,67.8,43.3,30.13,South,183,2.2,3.6,41,0.00,,---,0.00,VWS V14.01,2013-04-30 23:01:00,
2013-04-30 19:06:00,67.6,42.5,30.13,SSE,147,2.7,6.3,40,0.00,,---,0.00,VWS V14.01,2013-04-30 23:06:00,
2013-04-30 19:11:00,67.5,43.0,30.13,South,181,3.6,6.3,41,0.00,,---,0.00,VWS V14.01,2013-04-30 23:11:00,
2013-04-30 19:16:00,67.5,43.0,30.13,SSW,202,0.0,6.3,41,0.00,,---,0.00,VWS V14.01,2013-04-30 23:16:00,
2013-04-30 19:21:00,67.1,42.7,30.13,SW,224,2.7,6.3,41,0.00,,---,0.00,VWS V14.01,2013-04-30 23:21:00,
2013-04-30 19:26:00,66.9,43.2,30.13,SSW,196,0.0,6.3,42,0.00,,---,0.00,VWS V14.01,2013-04-30 23:26:00,
2013-04-30 19:31:00,66.7,43.7,30.13,SSE,158,0.0,6.3,43,0.00,,---,0.00,VWS V14.01,2013-04-30 23:31:00,
2013-04-30 19:36:00,66.6,43.5,30.13,SE,135,0.0,6.3,43,0.00,,---,0.00,VWS V14.01,2013-04-30 23:36:00,
2013-04-30 19:41:00,66.4,43.3,30.13,SSW,200,0.0,6.3,43,0.00,,---,0.00,VWS V14.01,2013-04-30 23:41:00,
2013-04-30 19:46:00,66.2,43.2,30.13,South,188,0.0,6.3,43,0.00,,---,0.00,VWS V14.01,2013-04-30 23:46:00,
2013-04-30 19:51:00,66.0,43.7,30.13,SSW,200,0.0,6.3,44,0.00,,---,0.00,VWS V14.01,2013-04-30 23:51:00,
2013-04-30 19:56:00,65.7,44.0,30.13,South,186,0.0,6.3,45,0.00,,---,0.00,VWS V14.01,2013-04-30 23:56:00,
2013-04-30 20:01:00,65.5,43.8,30.13,SW,214,0.0,0.0,45,0.00,,---,0.00,VWS V14.01,2013-05-01 00:01:00,
2013-04-30 20:06:00,65.1,44.1,30.13,SE,127,0.0,0.0,46,0.00,,---,0.00,VWS V14.01,2013-05-01 00:06:00,
2013-04-30 20:11:00,64.6,43.6,30.13,ESE,118,0.0,0.0,46,0.00,,---,0.00,VWS V14.01,2013-05-01 00:11:00,
2013-04-30 20:16:00,64.2,43.9,30.13,ESE,118,0.0,0.0,48,0.00,,---,0.00,VWS V14.01,2013-05-01 00:16:00,
2013-04-30 20:22:00,63.9,43.5,30.16,ESE,118,0.0,0.0,48,0.00,,---,0.00,VWS V14.01,2013-05-01 00:22:00,
2013-04-30 20:27:00,63.5,43.2,30.16,ESE,118,0.0,0.0,48,0.00,,---,0.00,VWS V14.01,2013-05-01 00:27:00,
2013-04-30 20:32:00,63.1,42.9,30.16,ESE,118,0.0,0.0,48,0.00,,---,0.00,VWS V14.01,2013-05-01 00:32:00,
2013-04-30 20:37:00,63.0,43.3,30.16,ESE,118,0.0,0.0,49,0.00,,---,0.00,VWS V14.01,2013-05-01 00:37:00,
2013-04-30 20:42:00,62.6,43.0,30.16,ESE,118,0.0,0.0,49,0.00,,---,0.00,VWS V14.01,2013-05-01 00:42:00,
2013-04-30 20:47:00,62.2,42.7,30.16,ESE,118,0.0,0.0,49,0.00,,---,0.00,VWS V14.01,2013-05-01 00:47:00,
2013-04-30 20:52:00,61.9,42.9,30.16,ESE,118,0.0,0.0,50,0.00,,---,0.00,VWS V14.01,2013-05-01 00:52:00,
2013-04-30 20:57:00,61.7,42.7,30.16,ESE,118,0.0,0.0,50,0.00,,---,0.00,VWS V14.01,2013-05-01 00:57:00,
2013-04-30 21:02:00,61.3,42.4,30.16,ESE,118,0.0,0.0,50,0.00,,---,0.00,VWS V14.01,2013-05-01 01:02:00,
2013-04-30 21:07:00,61.2,42.8,30.16,ESE,118,0.0,0.0,51,0.00,,---,0.00,VWS V14.01,2013-05-01 01:07:00,
2013-04-30 21:12:00,60.8,42.5,30.16,ESE,118,0.0,0.0,51,0.00,,---,0.00,VWS V14.01,2013-05-01 01:12:00,
2013-04-30 21:17:00,60.6,42.8,30.16,ESE,118,0.0,0.0,52,0.00,,---,0.00,VWS V14.01,2013-05-01 01:17:00,
2013-04-30 21:22:00,60.3,43.0,30.16,ESE,118,0.0,0.0,53,0.00,,---,0.00,VWS V14.01,2013-05-01 01:22:00,
2013-04-30 21:27:00,59.9,42.7,30.16,ESE,118,0.0,0.0,53,0.00,,---,0.00,VWS V14.01,2013-05-01 01:27:00,
2013-04-30 21:32:00,59.5,42.4,30.16,ESE,118,0.0,0.0,53,0.00,,---,0.00,VWS V14.01,2013-05-01 01:32:00,
2013-04-30 21:37:00,59.4,42.7,30.16,ESE,118,0.0,0.0,54,0.00,,---,0.00,VWS V14.01,2013-05-01 01:37:00,
2013-04-30 21:42:00,59.0,42.9,30.16,ESE,118,0.0,0.0,55,0.00,,---,0.00,VWS V14.01,2013-05-01 01:42:00,
2013-04-30 21:47:00,58.6,43.1,30.16,ESE,118,0.0,0.0,56,0.00,,---,0.00,VWS V14.01,2013-05-01 01:47:00,
2013-04-30 21:52:00,58.5,42.9,30.16,ESE,118,0.0,0.0,56,0.00,,---,0.00,VWS V14.01,2013-05-01 01:52:00,
2013-04-30 21:57:00,58.3,43.2,30.16,ESE,118,0.0,0.0,57,0.00,,---,0.00,VWS V14.01,2013-05-01 01:57:00,
2013-04-30 22:02:00,58.1,43.1,30.16,ESE,118,0.0,0.0,57,0.00,,---,0.00,VWS V14.01,2013-05-01 02:02:00,
2013-04-30 22:07:00,57.9,43.4,30.16,ESE,118,0.0,0.0,58,0.00,,---,0.00,VWS V14.01,2013-05-01 02:07:00,
2013-04-30 22:12:00,57.7,43.2,30.16,ESE,118,0.0,0.0,58,0.00,,---,0.00,VWS V14.01,2013-05-01 02:12:00,
2013-04-30 22:17:00,57.6,43.5,30.16,ESE,118,0.0,0.0,59,0.00,,---,0.00,VWS V14.01,2013-05-01 02:17:00,
2013-04-30 22:22:00,57.6,44.0,30.16,ESE,118,0.0,0.0,60,0.00,,---,0.00,VWS V14.01,2013-05-01 02:22:00,
2013-04-30 22:27:00,57.2,43.7,30.16,ESE,118,0.0,0.0,60,0.00,,---,0.00,VWS V14.01,2013-05-01 02:27:00,
2013-04-30 22:32:00,57.2,44.1,30.16,ESE,118,0.0,0.0,62,0.00,,---,0.00,VWS V14.01,2013-05-01 02:32:00,
2013-04-30 22:37:00,57.0,44.4,30.16,ESE,118,0.0,0.0,63,0.00,,---,0.00,VWS V14.01,2013-05-01 02:37:00,
2013-04-30 22:42:00,56.8,44.2,30.16,ESE,118,0.0,0.0,63,0.00,,---,0.00,VWS V14.01,2013-05-01 02:42:00,
2013-04-30 22:47:00,56.7,44.5,30.16,ESE,118,0.0,0.0,64,0.00,,---,0.00,VWS V14.01,2013-05-01 02:47:00,
2013-04-30 22:52:00,56.5,44.3,30.16,ESE,118,0.0,0.0,64,0.00,,---,0.00,VWS V14.01,2013-05-01 02:52:00,
2013-04-30 22:57:00,56.5,44.8,30.16,ESE,118,0.0,0.0,65,0.00,,---,0.00,VWS V14.01,2013-05-01 02:57:00,
2013-04-30 23:02:00,56.3,44.6,30.19,ESE,118,0.0,0.0,65,0.00,,---,0.00,VWS V14.01,2013-05-01 03:02:00,
2013-04-30 23:07:00,56.3,45.0,30.19,ESE,118,0.0,0.0,66,0.00,,---,0.00,VWS V14.01,2013-05-01 03:07:00,
2013-04-30 23:12:00,56.1,44.9,30.19,ESE,118,0.0,0.0,66,0.00,,---,0.00,VWS V14.01,2013-05-01 03:12:00,
2013-04-30 23:17:00,55.9,44.7,30.19,ESE,118,0.0,0.0,66,0.00,,---,0.00,VWS V14.01,2013-05-01 03:17:00,
2013-04-30 23:22:00,55.9,45.1,30.19,ESE,118,0.0,0.0,67,0.00,,---,0.00,VWS V14.01,2013-05-01 03:22:00,
2013-04-30 23:27:00,55.8,45.0,30.19,ESE,118,0.0,0.0,67,0.00,,---,0.00,VWS V14.01,2013-05-01 03:27:00,
2013-04-30 23:32:00,55.6,45.2,30.19,ESE,118,0.0,0.0,68,0.00,,---,0.00,VWS V14.01,2013-05-01 03:32:00,
2013-04-30 23:37:00,55.4,45.0,30.19,ESE,118,0.0,0.0,68,0.00,,---,0.00,VWS V14.01,2013-05-01 03:37:00,
2013-04-30 23:42:00,55.2,45.3,30.19,ESE,118,0.0,0.0,69,0.00,,---,0.00,VWS V14.01,2013-05-01 03:42:00,
2013-04-30 23:47:00,55.2,45.7,30.16,ESE,118,0.0,0.0,70,0.00,,---,0.00,VWS V14.01,2013-05-01 03:47:00,
2013-04-30 23:53:00,55.0,45.5,30.16,ESE,118,0.0,0.0,70,0.00,,---,0.00,VWS V14.01,2013-05-01 03:53:00,
2013-04-30 23:58:00,55.0,45.5,30.16,ESE,118,0.0,0.0,70,0.00,,---,0.00,VWS V14.01,2013-05-01 03:58:00,